#timestamp,LO_Frequency,Hit,StdDev 
1513810815.0,286047003.4,N
1513810815.9,286047003.4,N
1513810835.8,286047003.4,N
1513810855.6,286047004.6,N
1513810875.4,286047004.4,N
1513810895.3,286046998.1,N
1513810915.1,286047002.4,N
1513810916.0,286047002.4,N
1513810935.8,286047001.9,N
1513810955.7,286047002.2,N
1513810975.5,286047006.0,N
1513810995.3,286047003.1,N
1513811015.1,286047003.1,N
1513811035.9,286047000.0,N
1513811055.7,286047000.4,N
1513811075.5,286046999.2,N
1513811095.4,286046999.0,N
1513811115.2,286046994.9,N
1513811135.0,286046996.1,N
1513811135.9,286046996.1,N
1513811155.8,286046993.9,N
1513811175.6,286046990.3,N
1513811195.4,286046987.7,N
1513811215.3,286046986.5,N
1513811235.1,286046984.2,N
1513811236.0,286046984.2,N
1513811255.8,286046984.0,N
1513811275.7,286046986.8,N
1513811295.5,286046980.7,N
1513811315.3,286046984.5,N
1513811335.2,286046983.8,N
1513811355.9,286046986.1,N
1513811375.7,286046988.4,N
1513811395.5,286046984.6,N
1513811415.4,286046980.2,N
1513811435.2,286046974.1,Y
1513811455.0,286046980.7,P
1513811456.0,286046980.7,P
1513811475.8,286046983.9,N
1513811495.6,286046985.4,N
1513811515.4,286046987.7,N
1513811535.3,286046986.0,Y
1513811555.1,286046999.5,P
1513811575.8,286046996.0,N
1513811595.7,286046992.9,N
1513811615.5,286046992.7,N
1513811635.3,286046993.0,N
1513811655.2,286046991.3,N
1513811675.9,286046988.2,N
1513811695.7,286046986.4,Y
1513811715.6,286046992.2,P
1513811735.4,286046994.1,P
1513811755.2,286046994.8,P
1513811775.1,286046992.3,Y
1513811776.0,286046992.3,P
1513811795.8,286047000.6,N
1513811815.6,286047004.4,N
1513811835.5,286047006.0,N
1513811855.3,286047004.1,N
1513811875.1,286047001.9,N
1513811895.9,286047000.2,N
1513811915.7,286046999.5,N
1513811935.5,286047001.0,N
1513811955.4,286047007.1,N
1513811975.2,286047005.1,N
1513811995.0,286047003.5,N
1513811995.9,286047003.5,N
1513812015.7,286047002.0,N
1513812035.6,286047007.6,N
1513812055.4,286047008.1,N
1513812075.2,286047004.4,N
1513812095.1,286047003.8,N
1513812096.0,286047003.8,N
1513812115.8,286047012.4,Y
1513812135.6,286047003.0,P
1513812155.5,286047004.3,P
1513812175.3,286047007.4,P
1513812195.1,286047005.7,Y
1513812215.9,286046998.1,P
1513812235.7,286046998.5,N
1513812255.5,286046999.1,N
1513812275.4,286047001.0,N
1513812295.2,286046997.2,N
1513812315.0,286046998.7,N
1513812315.9,286046998.7,N
1513812335.8,286047002.1,N
1513812355.6,286046998.8,N
1513812375.4,286046999.1,N
1513812395.3,286046999.6,N
1513812415.1,286046999.1,N
1513812416.0,286046999.1,N
1513812435.8,286046999.0,N
1513812455.6,286046999.9,N
1513812475.5,286046998.0,N
1513812495.3,286046999.9,N
1513812515.1,286046998.1,N
1513812535.9,286046997.4,N
1513812555.7,286046995.7,N
1513812575.5,286046996.3,N
1513812595.4,286046994.6,Y
1513812615.2,286046993.9,P
1513812635.0,286046992.6,N
1513812635.9,286046992.6,N
1513812655.8,286046988.6,Y
1513812675.6,286046996.2,P
1513812695.4,286046996.4,P
1513812715.3,286046991.7,P
1513812735.1,286046992.2,Y
1513812755.8,286047000.9,P
1513812775.7,286046999.0,N
1513812795.5,286047000.6,N
1513812815.3,286047000.4,N
1513812835.2,286046997.1,N
1513812855.9,286046999.4,N
1513812875.7,286046999.6,N
1513812895.6,286046997.7,N
1513812915.4,286046998.0,N
1513812935.2,286046993.9,Y
1513812955.1,286046998.9,P
1513812956.0,286046998.9,P
1513812975.8,286047001.7,P
1513812995.6,286047003.7,N
1513813015.5,286047002.3,N
1513813035.3,286047003.4,N
1513813055.1,286047000.9,N
1513813075.9,286047002.3,N
1513813095.7,286046998.4,N
1513813115.5,286047000.8,N
1513813135.3,286046999.8,N
1513813155.2,286047002.7,N
1513813175.0,286047003.5,N
1513813175.9,286047003.5,N
1513813195.7,286047000.0,N
1513813215.6,286047002.2,N
1513813235.4,286047000.4,N
1513813255.2,286046995.4,N
1513813275.1,286046994.1,N
1513813276.0,286046994.1,N
1513813295.8,286046991.7,N
1513813315.6,286046994.5,N
1513813335.5,286046992.3,N
1513813355.3,286046991.2,N
1513813375.1,286046985.3,Y
1513813395.9,286046986.5,P
1513813415.7,286046984.5,N
1513813435.5,286046981.8,N
1513813455.4,286046982.0,N
1513813475.2,286046979.8,Y
1513813495.0,286046990.5,P
1513813495.9,286046990.5,P
1513813515.8,286046992.1,P
1513813535.6,286046992.2,Y
1513813555.4,286047003.4,P
1513813575.3,286047005.3,N
1513813595.1,286047004.8,N
1513813596.0,286047004.8,N
1513813615.8,286047005.4,N
1513813635.7,286047004.2,N
1513813655.5,286047005.9,N
1513813675.3,286047001.0,N
1513813695.1,286046998.7,N
1513813715.9,286046997.5,N
1513813735.7,286046996.8,N
1513813755.5,286046999.3,N
1513813775.4,286046996.0,N
1513813795.2,286046999.1,N
1513813815.0,286047000.0,N
1513813815.9,286047000.0,N
1513813835.8,286047001.0,N
1513813855.6,286047000.6,N
1513813875.4,286047001.0,N
1513813895.3,286047002.4,N
1513813915.1,286047003.0,N
1513813916.0,286047003.0,N
1513813935.8,286047008.4,N
1513813955.7,286047010.2,N
1513813975.5,286047017.1,Y
1513813995.3,286047019.5,P
1513814015.2,286047027.5,P
1513814035.9,286047035.2,P
1513814055.7,286047042.8,Y
1513814075.6,286047023.7,P
1513814095.4,286047022.9,P
1513814115.2,286047022.5,P
1513814135.1,286047020.7,Y
1513814136.0,286047020.7,P
1513814155.8,286047004.5,P
1513814175.6,286047011.4,N
1513814195.5,286047017.0,N
1513814215.3,286047019.3,N
1513814235.1,286047022.8,Y
1513814255.9,286047009.7,P
1513814275.7,286047013.3,P
1513814295.5,286047018.2,P
1513814315.4,286047020.4,Y
1513814335.2,286047008.1,P
1513814355.0,286047008.6,N
1513814355.9,286047008.6,P
1513814375.8,286047006.3,N
1513814395.6,286047008.6,Y
